Location: Binningen
(47.7924°N, 8.7261°E)
Time: 08:30:20
(UTC+00:00)

H-2A R/B - Pass Details

Date: 17 May 2021
Orbit: 573 x 598 km, 98.2° (Epoch: 15 June)

Event Time Altitude Azimuth Distance (km) Brightness Sun altitude
Rises 21:50:38 0° 9° (N) 2,840 7.9 -19.6°
Reaches altitude 10° 21:52:51 10° 4° (N) 1,929 7.0 -19.8°
Maximum altitude 21:56:53 49° 290° (WNW) 760 4.2 -20.0°
Enters shadow 21:59:01 25° 226° (SW) 1,201 4.8 -20.2°
